TJS-3 AKM

Last updated on Jan. 26, 2020, 4:40 a.m. UTC

1 43917U 18110C   20025.56785588  .00000049  00000-0  00000-0 0  9999
2 43917   0.4454 274.4470 0003027 352.0878 121.2080  1.00275038  3942
UTC
Height (km)
Latitude
Longitude
Inclination
Orbital Period
UTC large
Height (km)
Speed (km/s)
/
Latitude / Longitude
Inclination (degrees)
Orbital Period (minutes)
Azimuth
Elevation
Range (km)
Doppler Factor
iOS Compass Heading
iOS Angle

Next 30 passes for location: Hong Kong

Rise time Rise Azimuth (degrees) Set time Set Azimuth (degrees) Duration Max altitude (degrees)

No matching passes for this satellites